CW9561 Weather Reports


time (UTC)temp
F
wind
direction
speed
knots
gust
knots
rain 1hr
in
rain 24hr
in
rain mn
in
humidity
%
barometer
mb
20260510150035 43 94 0.9 0.0 0.00 0.00 0.00 69 1027.0
20260510144021 41 84 0.9 0.0 0.00 0.00 0.00 73 1027.2
20260510143040 41 90 1.7 0.0 0.00 0.00 0.00 73 1027.2
20260510142031 41 78 1.7 0.0 0.00 0.00 0.00 74 1027.0
20260510141023 40 65 0.0 0.0 0.00 0.00 0.00 74 1026.8
20260510140033 40 83 1.7 0.0 0.00 0.00 0.00 74 1026.8
20260510135027 40 110 0.0 0.0 0.00 0.00 0.00 73 1026.7
20260510133039 39 122 0.0 0.0 0.00 0.00 0.00 73 1026.7
20260510132031 39 178 0.0 0.0 0.00 0.00 0.00 72 1026.5
20260510131022 39 190 0.0 0.0 0.00 0.00 0.00 71 1026.4
20260510130022 38 190 0.0 0.0 0.00 0.00 0.00 75 1027.0
20260510124035 36 190 0.0 0.0 0.00 0.00 0.00 81 1026.7
20260510123027 34 190 0.0 0.0 0.00 0.00 0.00 82 1026.7
20260510122025 33 190 0.0 0.0 0.00 0.00 0.00 83 1026.4
20260510121038 34 190 0.0 0.0 0.00 0.00 0.00 83 1026.4
20260510120034 34 190 0.0 0.0 0.00 0.00 0.00 84 1026.3
20260510115026 34 190 0.0 0.0 0.00 0.00 0.00 84 1026.3
20260510114038 34 190 0.0 0.0 0.00 0.00 0.00 83 1026.0
20260510113029 34 190 0.0 0.0 0.00 0.00 0.00 84 1025.8
20260510111019 34 190 0.0 0.0 0.00 0.00 0.00 85 1025.5
20260510110032 34 190 0.0 0.0 0.00 0.00 0.00 84 1025.3
20260510105028 34 190 0.0 0.0 0.00 0.00 0.00 85 1025.2
20260510104022 34 190 0.0 0.0 0.00 0.00 0.00 85 1025.4
20260510103039 34 167 0.0 0.0 0.00 0.00 0.00 85 1025.3
20260510102035 34 167 0.0 0.0 0.00 0.00 0.00 84 1025.1
20260510101028 35 166 0.0 0.0 0.00 0.00 0.00 83 1024.9
20260510095025 34 165 0.0 0.0 0.00 0.00 0.00 83 1024.7
20260510093021 34 166 0.9 0.0 0.00 0.00 0.00 82 1024.6
20260510091031 34 166 1.7 0.0 0.00 0.00 0.00 82 1024.5
20260510085018 32 165 0.0 0.0 0.00 0.00 0.00 84 1024.3
20260510083038 32 165 0.0 0.0 0.00 0.00 0.00 83 1024.9
20260510082032 32 165 1.7 0.0 0.00 0.00 0.00 81 1024.6
20260510081027 32 166 0.0 0.0 0.00 0.00 0.00 79 1024.4
20260510080040 33 166 0.9 0.0 0.00 0.00 0.00 81 1024.2
20260510075037 33 165 2.6 0.0 0.00 0.00 0.00 81 1024.1
20260510073026 32 166 1.7 0.0 0.00 0.00 0.00 84 1024.0
20260510072021 32 166 1.7 0.0 0.00 0.00 0.00 83 1024.7
20260510071036 32 166 0.9 0.0 0.00 0.00 0.00 82 1024.6
20260510070033 33 112 0.0 0.0 0.00 0.00 0.00 82 1024.5
20260510065026 34 112 0.9 0.0 0.00 0.00 0.00 83 1024.4
20260510064021 34 112 1.7 0.0 0.00 0.00 0.00 83 1024.4
20260510063020 34 111 0.0 0.0 0.00 0.00 0.00 81 1024.4
20260510062038 35 111 0.0 0.0 0.00 0.00 0.00 82 1024.3
20260510061035 36 112 0.0 0.0 0.00 0.00 0.00 82 1023.9
20260510060034 36 112 0.0 0.0 0.00 0.00 0.00 80 1024.0
20260510055028 36 112 0.0 0.0 0.00 0.00 0.00 80 1024.1
20260510054023 37 111 0.0 0.0 0.00 0.00 0.00 79 1023.9
20260510053023 38 111 0.0 0.0 0.00 0.00 0.00 78 1023.8
20260510052035 38 112 0.0 0.0 0.00 0.00 0.00 78 1024.0
20260510051028 38 323 0.0 0.0 0.00 0.00 0.00 77 1024.6
20260510045039 39 305 1.7 0.0 0.00 0.00 0.00 75 1024.4
20260510044033 40 206 1.7 0.0 0.00 0.00 0.00 74 1024.2
20260510043035 40 299 0.9 0.0 0.00 0.00 0.00 74 1023.9
20260510042029 41 290 2.6 0.0 0.00 0.00 0.00 73 1023.4
20260510040038 43 281 0.9 0.0 0.00 0.00 0.00 66 1023.2
20260510035032 44 299 0.0 0.0 0.00 0.00 0.00 61 1022.2
20260510034034 45 287 0.0 0.0 0.00 0.00 0.00 52 1022.0
20260510032025 47 246 0.0 0.0 0.00 0.00 0.00 46 1022.2
20260510031022 48 328 0.9 0.0 0.00 0.00 0.00 45 1021.5
20260510030023 49 300 3.5 0.0 0.00 0.00 0.00 44 1021.9
20260510025034 50 286 0.9 0.0 0.00 0.00 0.00 37 1021.6
20260510024028 51 289 0.9 0.0 0.00 0.00 0.00 37 1021.1
20260510023022 52 314 1.7 0.0 0.00 0.00 0.00 35 1021.0
20260510021034 52 260 0.9 0.0 0.00 0.00 0.00 33 1020.4
20260510020030 52 355 0.9 0.0 0.00 0.00 0.00 31 1020.1
20260510015022 52 355 0.0 0.0 0.00 0.00 0.00 30 1020.0
20260510014019 53 276 0.0 0.0 0.00 0.00 0.00 29 1019.7
20260510011033 54 276 0.0 0.0 0.00 0.00 0.00 28 1019.7
20260510010028 55 276 0.0 0.0 0.00 0.00 0.00 26 1019.5
20260510005024 56 276 0.0 0.0 0.00 0.00 0.00 25 1019.7
20260510003032 57 26 0.0 0.0 0.00 0.00 0.00 24 1019.6
20260510002034 57 217 0.9 0.0 0.00 0.00 0.00 23 1019.6
20260510001030 57 317 1.7 0.0 0.00 0.00 0.00 22 1019.7
20260510000023 58 287 2.6 0.0 0.00 0.00 0.00 21 1019.6
20260509235038 59 236 1.7 0.0 0.00 0.00 0.00 20 1019.6
20260509234035 59 319 2.6 0.0 0.00 0.00 0.00 20 1019.7
20260509233031 59 283 3.5 0.0 0.00 0.00 0.00 20 1019.6
20260509232028 60 280 1.7 0.0 0.00 0.00 0.00 20 1019.7
20260509231039 60 280 2.6 0.0 0.00 0.00 0.00 22 1019.8
20260509230033 60 232 2.6 0.0 0.00 0.00 0.00 22 1019.8
20260509225031 60 332 2.6 0.0 0.00 0.00 0.00 21 1019.9
20260509224023 59 288 1.7 0.0 0.00 0.00 0.00 25 1019.7
20260509223039 60 267 2.6 0.0 0.00 0.00 0.00 25 1019.5
20260509221028 61 281 1.7 0.0 0.00 0.00 0.00 25 1019.5
20260509220024 61 252 1.7 0.0 0.00 0.00 0.00 23 1019.5
20260509215039 62 292 2.6 0.0 0.00 0.00 0.00 23 1019.5
20260509214032 63 281 0.9 0.0 0.00 0.00 0.00 24 1019.4
20260509213027 62 263 2.6 0.0 0.00 0.00 0.00 27 1019.7
20260509212021 62 328 3.5 0.0 0.00 0.00 0.00 23 1019.4
20260509210040 62 215 1.7 0.0 0.00 0.00 0.00 26 1019.5
20260509205030 62 306 2.6 0.0 0.00 0.00 0.00 24 1019.7
20260509204028 61 271 2.6 0.0 0.00 0.00 0.00 25 1019.7
20260509203026 62 303 1.7 0.0 0.00 0.00 0.00 25 1019.5
20260509202027 61 262 2.6 0.0 0.00 0.00 0.00 24 1019.6
20260509201038 61 303 2.6 0.0 0.00 0.00 0.00 24 1020.0
20260509200032 61 284 2.6 0.0 0.00 0.00 0.00 24 1020.1
20260509194022 61 300 2.6 0.0 0.00 0.00 0.00 25 1019.7
20260509193023 60 279 2.6 0.0 0.00 0.00 0.00 25 1019.6
20260509192036 60 276 1.7 0.0 0.00 0.00 0.00 27 1020.0
20260509191029 61 283 1.7 0.0 0.00 0.00 0.00 27 1019.9
20260509190023 61 306 1.7 0.0 0.00 0.00 0.00 28 1019.8
20260509185035 60 288 0.9 0.0 0.00 0.00 0.00 27 1019.7
20260509184033 60 294 2.6 0.0 0.00 0.00 0.00 26 1019.9
20260509183027 59 53 1.7 0.0 0.00 0.00 0.00 28 1019.6
20260509181036 59 294 1.7 0.0 0.00 0.00 0.00 31 1019.7
20260509180029 59 294 2.6 0.0 0.00 0.00 0.00 34 1019.9
20260509175026 59 302 1.7 0.0 0.00 0.00 0.00 31 1020.0
20260509174022 58 126 2.6 0.0 0.00 0.00 0.00 32 1020.1
20260509172028 57 273 2.6 0.0 0.00 0.00 0.00 35 1020.0
20260509171020 57 131 2.6 0.0 0.00 0.00 0.00 34 1020.2
20260509170021 58 221 1.7 0.0 0.00 0.00 0.00 35 1020.1
20260509165034 58 190 1.7 0.0 0.00 0.00 0.00 33 1020.0
20260509164030 58 279 1.7 0.0 0.00 0.00 0.00 34 1019.9
20260509163023 59 336 0.9 0.0 0.00 0.00 0.00 33 1020.2
20260509162017 58 221 1.7 0.0 0.00 0.00 0.00 37 1019.9
20260509161038 57 325 0.9 0.0 0.00 0.00 0.00 33 1019.8
20260509160034 57 345 0.9 0.0 0.00 0.00 0.00 35 1020.1
20260509155028 56 92 0.9 0.0 0.00 0.00 0.00 36 1019.4
20260509154022 56 302 0.9 0.0 0.00 0.00 0.00 38 1019.4
20260509153022 55 190 0.9 0.0 0.00 0.00 0.00 37 1019.5
20260509152036 56 226 0.9 0.0 0.00 0.00 0.00 34 1019.6
20260509151029 55 13 1.7 0.0 0.00 0.00 0.00 36 1019.7